Location: Unspecified
(0.0000°N, 0.0000°E)
Time: 08:20:55
(UTC+00:00)

Tiangong 2 - Visible Passes

Search period start: 28 April 2017 00:00
Search period end: 08 May 2017 00:00
Orbit: 380 x 389 km, 42.8° (Epoch: 26 April)

Date Brightness Start Highest point End Pass type
(mag) Time Alt. Az. Time Alt. Az. Time Alt. Az.
28 Apr 2.7 04:32:00 26° SSE 04:32:29 28° SE 04:35:14 10° ENE visible
29 Apr 2.2 05:08:08 19° W 05:09:36 29° NW 05:12:22 10° NNE visible
30 Apr 3.4 04:11:57 22° NE 04:11:57 22° NE 04:13:15 10° NE visible
01 May 3.6 04:47:55 11° NNW 04:47:55 11° NNW 04:48:17 10° NNW visible
